Regional Weather Roundup
Issued by NWS

Home | Current Version | Previous Version | Text Only | Print | Product List | Glossary Off
Versions: 1 2 3 4 5 6 7 8 9 10 11 12 13 14 15 16 17 18 19 20 21 22 23 24 25 26 27 28 29 30 31 32 33 34 35 36 37 38 39 40 41 42 43 44 45 46 47 48 49 50

000
ASUS43 KIND 060109
RWRIN

WEATHER ROUNDUP FOR INDIANA
NATIONAL WEATHER SERVICE INDIANAPOLIS IN
900 PM EDT TUE MAY 05 2015

NOTE: "FAIR" INDICATES FEW OR NO CLOUDS BELOW 12,000 FEET WITH NO
SIGNIFICANT WEATHER AND/OR OBSTRUCTIONS TO VISIBILITY.

* - STATION DOES NOT REPORT WEATHER SUCH AS PRECIPITATION OR FOG.

+ - STATION NOT QUALITY CONTROLLED BY THE NATIONAL WEATHER SERVICE.
    USE DATA WITH CAUTION...ESPECIALLY DEWPOINT AND RELATIVE
    HUMIDITY OBSERVATIONS.

INZ001>003-010>013-019-020-060200-
NORTHWEST INDIANA

CITY           SKY/WX    TMP DP  RH WIND       PRES   REMARKS
KNOX *+        CLOUDY    61  54  77 E7        30.18R
LA PORTE +     MOCLDY    60  60  99 E7        30.19S FOG
MICHIGAN CITY+ MOCLDY    55  55 100 NE3       30.19S
MONTICELLO +   RAIN      67  65  93 N9        30.15R
VALPARAISO     CLOUDY    62  59  90 E7        30.19R

$$

LMZ046-743>745-060200-
SOUTHERN LAKE MICHIGAN

STATION/POSITION TIME  TEMP    WIND        PRES    WAVE
                       AIR SEA DIR/SP/G            HT
                 (UTC) (F)     (DEG/KT/KT) (MB)    (FT)
BURNS HARBOR     0100   53      40/  3/  6 1022.7R
MICHIGAN CITY    0100   59      40/  8/  9   N/A
5NW MICH CITY    0100   52 50   40/  6/  8   N/A     1

$$

INZ004-005-014>016-021>024-060200-
NORTH CENTRAL INDIANA

CITY           SKY/WX    TMP DP  RH WIND       PRES   REMARKS
ELKHART        CLOUDY    54  52  94 E8        30.21R FOG
GOSHEN         CLOUDY    56  54  93 NE7       30.21R FOG
LOGANSPORT +   CLOUDY    70  61  73 N7        30.16R
PERU/GRISSOM   CLOUDY    69  63  79 NE10      30.15R
ROCHESTER +    CLOUDY    64  64 100 NE6       30.18R FOG
SOUTH BEND     MOCLDY    56  53  90 E8        30.21R
WARSAW +       CLOUDY    61  59  94 E12       30.20R FOG

$$

INZ006>009-017-018-025>027-060200-
NORTHEAST INDIANA

CITY           SKY/WX    TMP DP  RH WIND       PRES   REMARKS
ANGOLA *+      CLOUDY    54  41  62 E6        30.22F
AUBURN +       CLOUDY    54  52  94 E9        30.23R FOG
FORT WAYNE     CLOUDY    58  56  93 NE15      30.21R FOG
HUNTINGTON +   MOCLDY    60  58  91 NE12G17   30.20R FOG

$$

INZ028-029-035-036-043>045-051>053-060200-
WEST CENTRAL INDIANA

CITY           SKY/WX    TMP DP  RH WIND       PRES   REMARKS
CRAWFORDSVL +  MOCLDY    71  47  42 S5        30.15R
GREENCASTLE +  MOCLDY    73  50  43 CALM      30.17R
LAFAYETTE      CLOUDY    72  62  71 N13       30.14R
TERRE HAUTE    MOCLDY    74  55  51 SE6       30.14R

$$

INZ030>032-037>040-046>048-054>057-064-065-060200-
CENTRAL INDIANA

CITY           SKY/WX    TMP DP  RH WIND       PRES   REMARKS
CP ATTERBURY + CLEAR     73  52  46 CALM      30.18R
FISHERS *+     CLEAR     72  55  56 S3        30.16
FRANKFORT +    CLOUDY    73  56  54 S3        30.17R
GREENWOOD *+   CLEAR     73  52  46 S5        30.18R
INDIANAPOLIS   MOCLDY    72  52  49 S8        30.15S
-EAGLE CREEK   PTCLDY    76  52  43 CALM      30.15S
KOKOMO *+      MOCLDY    73  55  53 SW3       30.15R
MARION +       PTCLDY    71  54  54 S3        30.16S
MT COMFORT *+  CLEAR     73  37  27 S5        30.18R
SHELBYVILLE    CLEAR     76  53  44 S3        30.17R
ZIONSVILLE +   PTCLDY    74  51  44 SW6       30.17R

$$

INZ033-034-041-042-049-050-058-059-060200-
EAST CENTRAL INDIANA

CITY           SKY/WX    TMP DP  RH WIND       PRES   REMARKS
MUNCIE         MOCLDY    76  54  46 S6        30.17R

$$

INZ060-061-067>069-081>083-085>088-060200-
SOUTHWEST INDIANA

CITY           SKY/WX    TMP DP  RH WIND       PRES   REMARKS
EVANSVILLE     CLEAR     79  50  36 S3        30.16R
HUNTINGBURG *+ CLEAR     75  54  46 CALM      30.17R
WASHINGTON +   CLEAR     71  50  47 S3        30.15R

$$

INZ062-063-066-070>080-084-089>092-060200-
SOUTH CENTRAL AND SOUTHEAST INDIANA

CITY           SKY/WX    TMP DP  RH WIND       PRES   REMARKS
BLOOMINGTON    CLEAR     71  53  52 S3        30.17R
MADISON *+     CLEAR     70  52  52 CALM      30.20S
NORTH VERNON + CLEAR     70  54  56 CALM      30.18
SEYMOUR +      CLEAR     73  55  53 S3        30.17R

$$




USA.gov is the U.S. government's official web portal to all federal, state and local government web resources and services.